Flag for Uzbekistan Weather past 2 weeks in Samarkand, Uzbekistan

Now
37 °F

Fog.


Feels Like: 34 °F
Forecast: 33 / 56 °F
Wind: 5 mph from Northwest

Location: Samarkand

Current Time: Apr 1, 2015 at 10:59:53 AM

Latest Report: Apr 1, 2015 at 10:00 AM


Visibility: 1 mi

Pressure: 29.89 "Hg

Humidity: 93%

Dew point: 36 °F

Location of SamarkandLocation

Historic Weather in Samarkand — Graph

°F

Samarkand temperature yesterday

Maximum temperature yesterday: 37 °F (at 7:30 PM)
Minimum temperature yesterday: 21 °F (at 12:00 AM)
Average temperature yesterday: 30 °F

Past Weeks' High & Low Weather Summary

 TemperatureHumidityPressure
High77 °F (Mar 23, 3:00 PM)94% (Mar 23, 4:30 AM)30.39 "Hg (Mar 23, 4:30 AM)
Low18 °F (Mar 30, 7:00 AM)28% (Mar 23, 4:00 PM)29.59 "Hg (Mar 23, 10:00 PM)
Average48 °F68%30.13 "Hg
* Reported Mar 17 9:00 AM — Apr 1 9:30 AM, Samarkand, Weather by CustomWeather, © 2015

Note: Actual official high and low records may vary slightly from our data, if they occured in-between our weather recording intervals... More about our weather records

Advertising

Samarkand weather history for previous 24 hours

 ConditionsComfort  
Time TempWeatherWind HumidityBarometerVisibility
9:30 AM
Wed, Apr 1
39 °FFog.5 mph93%29.89 "Hg1 mi
9:00 AM37 °FFog.No wind93%29.89 "Hg2 mi
8:30 AM37 °FFog.6 mph93%29.89 "Hg2 mi
8:00 AM37 °FFog.3 mph93%29.86 "Hg3 mi
7:30 AM37 °FFog.5 mph93%29.86 "Hg2 mi
7:00 AM37 °FFog.3 mph93%29.86 "Hg1 mi
6:30 AM37 °FFog.3 mph93%29.86 "Hg1 mi
6:00 AM37 °FFog.3 mph87%29.83 "Hg1 mi
5:30 AM36 °FFog.2 mph93%29.83 "Hg2 mi
5:00 AM36 °FDrizzle. Low clouds.2 mph93%29.83 "Hg3 mi
4:30 AM36 °FPassing clouds.2 mph87%29.83 "HgN/A
4:00 AM36 °FPartly cloudy.2 mph87%29.83 "HgN/A
3:00 AM36 °FPassing clouds.2 mph87%29.80 "HgN/A
2:30 AM36 °FPartly cloudy.2 mph87%29.83 "HgN/A
2:00 AM36 °FPassing clouds.3 mph87%29.83 "HgN/A
1:30 AM37 °FPartly cloudy.2 mph81%29.83 "HgN/A
1:00 AM36 °FOvercast.2 mph87%29.83 "HgN/A
12:00 AM36 °FOvercast.5 mph87%29.83 "HgN/A
11:30 PM
Tue, Mar 31
37 °FOvercast.6 mph81%29.83 "HgN/A
11:00 PM36 °FOvercast.6 mph87%29.80 "HgN/A
10:30 PM37 °FOvercast.9 mph81%29.80 "HgN/A
10:00 PM36 °FOvercast.9 mph87%29.80 "HgN/A
9:30 PM36 °FLight rain. Overcast.9 mph87%29.80 "HgN/A
9:00 PM36 °FLight rain. Overcast.12 mph87%29.80 "HgN/A
8:30 PM36 °FLight rain. Overcast.10 mph87%29.77 "HgN/A
8:00 PM37 °FLight rain. Overcast.15 mph87%29.77 "HgN/A
7:30 PM37 °FLight rain. Overcast.9 mph87%29.77 "Hg4 mi
7:00 PM36 °FSprinkles. Overcast.10 mph87%29.77 "Hg4 mi
6:30 PM36 °FSprinkles. Fog.13 mph87%29.77 "Hg3 mi
6:00 PM34 °FSprinkles. Fog.10 mph87%29.77 "Hg3 mi
5:30 PM34 °FSprinkles. Overcast.15 mph87%29.77 "Hg4 mi
5:00 PM34 °FSprinkles. Overcast.13 mph87%29.77 "HgN/A
4:30 PM34 °FSprinkles. Overcast.14 mph81%29.77 "HgN/A
4:00 PM34 °FSprinkles. Overcast.14 mph81%29.80 "HgN/A
3:30 PM34 °FSprinkles. Overcast.20 mph81%29.80 "HgN/A
3:00 PM32 °FSprinkles. Overcast.16 mph80%29.80 "HgN/A
2:30 PM32 °FSprinkles. Overcast.14 mph80%29.83 "HgN/A
2:00 PM32 °FSprinkles. Partly sunny.13 mph75%29.83 "HgN/A
1:30 PM32 °FSprinkles. Overcast.17 mph75%29.86 "HgN/A
1:00 PM34 °FSprinkles. Overcast.13 mph65%29.86 "HgN/A
12:30 PM32 °FLight freezing rain. Overcast.14 mph69%29.89 "HgN/A
12:00 PM32 °FLight freezing rain. Overcast.18 mph69%29.89 "HgN/A
11:30 AM32 °FSprinkles. Overcast.20 mph64%29.89 "HgN/A
11:00 AM34 °FScattered clouds.20 mph60%29.89 "HgN/A
10:30 AM32 °FScattered clouds.22 mph60%29.92 "HgN/A
10:00 AM32 °FClear.20 mph60%29.95 "HgN/A
Weather by CustomWeather, © 2015

See weather overviewHow to use our weather pages